Home > Weather > Homburg (Saar) > Past weeks

Flag for Germany Weather for the Past 2 Weeks in Homburg (Saar), Saarland, Germany

Now
36 °F

Clear.


Feels Like: 36 °F
Forecast: 28 / 54 °F
Wind: 1 mph from North

Location: Saarbruecken / Ensheim

Current Time: Apr 29, 2016 at 1:57:07 AM

Latest Report: Apr 29, 2016 at 1:20 AM


Visibility: 10 mi

Pressure: 30.01 "Hg

Humidity: 81%

Dew Point: 30 °F

Location of Homburg (Saar)Location

Historic Weather in Homburg (Saar) — Graph

°F

Homburg (Saar) Temperature Yesterday

Maximum temperature yesterday: 48 °F (at 4:50 PM)
Minimum temperature yesterday: 30 °F (at 5:20 AM)
Average temperature yesterday: 39 °F

High & Low Weather Summary for the Past Weeks

 TemperatureHumidityPressure
High70 °F (Apr 21, 4:50 PM)100% (Apr 14, 2:20 AM)30.39 "Hg (Apr 14, 2:20 AM)
Low28 °F (Apr 24, 6:20 AM)20% (Apr 21, 5:50 PM)29.56 "Hg (Apr 26, 3:20 AM)
Average46 °F71%29.94 "Hg
* Reported Apr 14 12:20 AM — Apr 29 12:20 AM, Homburg (Saar), Weather by CustomWeather, © 2016

Note: Actual official high and low records may vary slightly from our data, if they occured in-between our weather recording intervals... More about our weather records

Advertising

Homburg (Saar) Weather History for the Previous 24 Hours

Scroll right to see more
 ConditionsComfort  
Time TempWeatherWind HumidityBarometerVisibility
12:20 AM
Fri, Apr 29
36 °FClear.No wind81%30.01 "Hg10 mi
11:50 PM
Thu, Apr 28
37 °FClear.1 mph75%30.01 "Hg10 mi
11:20 PM37 °FClear.No wind75%30.01 "Hg10 mi
10:50 PM39 °FClear.1 mph70%30.01 "Hg10 mi
10:20 PM39 °FClear.No wind70%30.01 "Hg10 mi
9:50 PM41 °FPassing clouds.3 mph66%30.01 "HgN/A
9:20 PM43 °FSunny.6 mph61%30.01 "Hg10 mi
8:50 PM45 °FPassing clouds.6 mph57%30.01 "HgN/A
8:20 PM46 °FPassing clouds.5 mph53%30.01 "HgN/A
7:50 PM48 °FPassing clouds.6 mph46%29.98 "HgN/A
7:20 PM48 °FPassing clouds.5 mph46%29.98 "HgN/A
6:50 PM48 °FScattered showers. Scattered clouds.7 mph46%29.98 "HgN/A
6:20 PM48 °FScattered clouds.3 mph54%29.98 "HgN/A
5:50 PM48 °FScattered clouds.5 mph54%29.98 "HgN/A
5:20 PM48 °FScattered clouds.6 mph54%29.98 "HgN/A
4:50 PM48 °FPassing clouds.7 mph62%29.98 "HgN/A
4:20 PM46 °FScattered showers. Passing clouds.9 mph57%29.98 "HgN/A
3:50 PM45 °FScattered showers. Passing clouds.3 mph66%30.01 "HgN/A
3:20 PM45 °FSprinkles. Scattered clouds.12 mph61%30.01 "HgN/A
2:20 PM45 °FScattered showers. Scattered clouds.6 mph66%30.01 "HgN/A
1:20 PM41 °FScattered showers. Broken clouds.7 mph81%30.01 "HgN/A
12:50 PM39 °FSprinkles. Partly sunny.15 mph81%30.01 "HgN/A
12:20 PM45 °FPartly sunny.3 mph66%30.01 "HgN/A
11:50 AM41 °FPartly sunny.2 mph70%30.01 "HgN/A
11:20 AM39 °FPartly sunny.2 mph81%30.01 "HgN/A
10:20 AM37 °FPartly sunny.3 mph93%29.98 "Hg4 mi
9:50 AM36 °FFog.2 mph93%29.98 "Hg3 mi
9:20 AM36 °FFog.3 mph93%29.98 "Hg1 mi
7:50 AM34 °FFog.2 mph93%29.95 "Hg1 mi
7:20 AM34 °FFog.3 mph93%29.95 "Hg1 mi
6:50 AM32 °FIce fog.3 mph100%29.95 "Hg2 mi
5:50 AM32 °FFog.3 mph93%29.92 "Hg5 mi
5:20 AM30 °FPassing clouds.2 mph100%29.92 "HgN/A
4:50 AM32 °FPassing clouds.3 mph93%29.92 "HgN/A
4:20 AM32 °FPartly cloudy.1 mph93%29.92 "HgN/A
3:50 AM32 °FPartly cloudy.3 mph93%29.92 "HgN/A
3:20 AM32 °FPassing clouds.2 mph93%29.92 "Hg6 mi
2:50 AM32 °FChilly.3 mph100%29.92 "Hg3 mi
2:20 AM32 °FChilly.2 mph93%29.92 "Hg1 mi
1:50 AM32 °FClear.1 mph93%29.92 "Hg10 mi
1:20 AM32 °FChilly.2 mph93%29.92 "Hg4 mi
Weather by CustomWeather, © 2016

See weather overviewHow to use our weather pages